Flag for U.S.A. Weather past 2 weeks in Babylon, New York, U.S.A.

Now
45 °F

Overcast.


Feels Like: 41 °F
Forecast: 40 / 46 °F
Wind: 8 mph from North

Location: Republic Airport

Current Time: Mar 27, 2015 at 3:42:06 PM

Latest Report: Mar 27, 2015 at 2:53 PM


Visibility: 10 mi

Pressure: 29.72 "Hg

Humidity: 63%

Dew point: 33 °F

Location of BabylonLocation

Historic Weather in Babylon — Graph

°F

Babylon temperature yesterday

Maximum temperature yesterday: 57 °F (at 6:53 PM)
Minimum temperature yesterday: 42 °F (at 6:53 AM)
Average temperature yesterday: 48 °F

Past Weeks' High & Low Weather Summary

 TemperatureHumidityPressure
High57 °F (Mar 17, 12:53 PM)100% (Mar 14, 4:53 PM)30.68 "Hg (Mar 14, 4:53 PM)
Low23 °F (Mar 23, 6:53 AM)13% (Mar 12, 4:53 PM)29.53 "Hg (Mar 17, 11:53 AM)
Average38 °F59%30.09 "Hg
* Reported Mar 12 1:53 PM — Mar 27 1:53 PM, Babylon, Weather by CustomWeather, © 2015

Note: Actual official high and low records may vary slightly from our data, if they occured in-between our weather recording intervals... More about our weather records

Advertising

Babylon weather history for previous 24 hours

 ConditionsComfort  
Time TempWeatherWind HumidityBarometerVisibility
1:53 PM
Fri, Mar 27
44 °FOvercast.9 mph71%29.73 "Hg10 mi
12:53 PM43 °FScattered clouds.10 mph71%29.72 "Hg10 mi
11:53 AM42 °FOvercast.7 mph76%29.74 "Hg10 mi
10:53 AM42 °FCloudy.7 mph82%29.74 "Hg10 mi
9:53 AM40 °FMore clouds than sun.9 mph86%29.75 "Hg10 mi
8:53 AM40 °FMostly cloudy.10 mph86%29.74 "Hg10 mi
7:53 AM39 °FOvercast.10 mph89%29.75 "Hg10 mi
6:53 AM40 °FLight rain. Mostly cloudy.13 mph86%29.76 "Hg10 mi
5:53 AM41 °FLight rain. Mostly cloudy.12 mph89%29.72 "Hg10 mi
4:53 AM41 °FLight rain. Overcast.9 mph89%29.71 "Hg10 mi
3:53 AM42 °FRain. Fog.10 mph89%29.72 "Hg6 mi
2:53 AM43 °FLight rain. Overcast.9 mph86%29.68 "Hg10 mi
1:53 AM44 °FLight rain. Mostly cloudy.6 mph89%29.67 "Hg10 mi
12:53 AM45 °FMostly cloudy.10 mph90%29.67 "Hg10 mi
11:53 PM
Thu, Mar 26
47 °FPartly cloudy.16 mph90%29.63 "Hg10 mi
10:58 PM50 °FOvercast.15 mph93%29.63 "Hg10 mi
9:53 PM52 °FFog.12 mph100%29.63 "Hg0 mi
8:53 PM53 °FFog.20 mph100%29.63 "Hg1 mi
7:53 PM51 °FFog.22 mph96%29.64 "Hg3 mi
6:53 PM57 °FLight rain. Fog.23 mph93%29.64 "Hg1 mi
6:03 PM54 °FMostly cloudy.28 mph93%29.66 "Hg10 mi
6:01 PM54 °FMostly cloudy.29 mph93%29.66 "Hg10 mi
4:53 PM55 °FLight rain. Fog.22 mph93%29.69 "Hg2 mi
3:53 PM52 °FLow clouds.26 mph97%29.71 "Hg2 mi
3:01 PM55 °FMostly cloudy.22 mph93%29.74 "Hg2 mi
Weather by CustomWeather, © 2015

See weather overviewHow to use our weather pages